Preview of NWS' New Version of Forecast
This preview is not operational and should not be used for support decisions.

Regional Weather Roundup (RWR)

Issued by National Weather Service (NWS)

                            
000
ASUS46 KPQR 221310
RWROR 

OREGON REGIONAL WEATHER ROUNDUP
NATIONAL WEATHER SERVICE PORTLAND OR
600 AM PDT WED MAY 22 2019

NOTE: "FAIR" INDICATES FEW OR NO CLOUDS BELOW 12,000 FEET WITH
NO SIGNIFICANT WEATHER AND/OR OBSTRUCTIONS TO VISIBILITY.

ORZ001>013-221400-
NORTHWEST OREGON

  
CITY           SKY/WX    TMP DP  RH WIND       PRES   REMARKS
ASTORIA        CLOUDY    54  51  90 W3        29.98R                  
TILLAMOOK      CLOUDY    54  50  87 CALM      30.01R                  
NEWPORT        CLOUDY    54  50  87 N7        30.03R                  
PORTLAND       PTCLDY    51  46  83 CALM      29.96R                  
VANCOUVER WA   CLEAR     46  44  93 CALM      29.95R                  
SCAPPOOSE      CLEAR     52  46  80 N3        29.95R                  
HILLSBORO      CLEAR     46  44  93 CALM      29.96R                  
AURORA         CLEAR     50  48  93 CALM      29.97R FOG              
MCMINNVILLE    PTCLDY    49  47  93 CALM      29.96R                  
SALEM          MOCLDY    47  45  93 S3        29.96R                  
CORVALLIS      MOCLDY    50  49  96 W8        29.98R                  
EUGENE         MOCLDY    49  47  93 CALM      29.98R                  
$$

ORZ021-028-221400-
SOUTHWEST OREGON

  
CITY           SKY/WX    TMP DP  RH WIND       PRES   REMARKS
NORTH BEND     CLOUDY    54  50  86 N10       30.03R                  
BROOKINGS      CLEAR     46  46 100 CALM      29.97S                  
ROSEBURG       CLOUDY    52  50  93 CALM      29.98R                  
SEXTON SUMMIT  LGT RAIN  41  40  96 CALM      29.93S VSB 1/4          
GRANTS PASS    CLOUDY    48  48 100 CALM      29.99R FOG              
MEDFORD        CLOUDY    50  45  83 W3        29.95R                  
$$

ORZ014>016-041-221400-
COLUMBIA GORGE

  
CITY           SKY/WX    TMP DP  RH WIND       PRES   REMARKS
TROUTDALE      CLOUDY    52  49  89 CALM      29.95R                  
HOOD RIVER     CLOUDY    50  46  87 S3        29.90R                  
THE DALLES     CLOUDY    57  47  69 NW15G26   29.85R                  
$$

ORZ029>031-041-044-049-050-061>064-502-503-505>511-221400-
EASTERN OREGON

  
CITY           SKY/WX    TMP DP  RH WIND       PRES   REMARKS
MADRAS         CLOUDY    46  43  87 NW6       29.90S                  
REDMOND        CLOUDY    46  43  89 S3        29.88R                  
BEND           CLOUDY    46  43  87 W6        29.89R                  
PRINEVILLE     CLOUDY    46  43  87 W10       29.88R                  
KLAMATH FALLS  CLOUDY    43  36  76 NW9       29.86S                  
LAKEVIEW       CLOUDY    40  37  89 N9        29.83R                  
HERMISTON      CLOUDY    53  49  86 CALM      29.82R                  
PENDLETON      CLOUDY    49  46  90 SE3       29.82S                  
JOHN DAY       CLOUDY    46  44  93 W6        29.82R                  
MEACHAM        CLOUDY    44  41  89 CALM      29.84R                  
LA GRANDE      CLOUDY    48  42  80 W15       29.82R                  
BAKER CITY     NOT AVBL                                               
BURNS          CLOUDY    46  38  73 N9        29.79R                  
ROME             N/A     43  40  89 SW5       29.73R                  
ONTARIO        LGT RAIN  54  43  66 NW20G26   29.70R                  
$$